Voltar ao catálogo

DELTA 1 DEB

AtivoSSO
NORAD 42078·DEBRIS·🇺🇸 United States

Lançado Dec 15, 1968 de Vandenberg Space Force Base

Loading…

Próximas Passagens (próximas 24 horas)

TLE

AtualizadoSource: Space-Track

Época: Sep 13, 2026, 02:22 UTC

1 42078U 68114E   26256.09907658 -.00000005  00000-0  24916-3 0  9997
2 42078 101.5204 212.5724 0029099  95.9878 264.4511 12.50061929234191

Acompanhe DELTA 1 DEB em tempo real com AllMySat

Download on the App Store